Home > Weather > MD of Lunenburg > Past weeks

Flag for Canada Past Weather in MD of Lunenburg, Nova Scotia, Canada — Yesterday and Last 2 Weeks

Now
46 °F

Cool.


Feels Like: 41 °F
Forecast: 46 / 73 °F
Wind: 10 mph from Southwest

Location: McNabs Island - AUT

Current Time: May 28, 2016 at 3:01:18 AM

Latest Report: May 28, 2016 at 2:00 AM


Visibility: N/A

Pressure: 30.06 "Hg

Humidity: 97%

Dew Point: 45 °F

Location of MD of LunenburgLocation

Past Weather in MD of Lunenburg — Graph

°F

MD of Lunenburg Temperature Yesterday

Maximum temperature yesterday: 50 °F (at 2:00 PM)
Minimum temperature yesterday: 46 °F (at 4:00 AM)
Average temperature yesterday: 47 °F

High & Low Weather Summary for the Past Weeks

 TemperatureHumidityPressure
High76 °F (May 21, 11:00 AM)100% (May 15, 4:00 AM)30.25 "Hg (May 15, 4:00 AM)
Low38 °F (May 13, 6:00 AM)28% (May 21, 2:00 PM)29.49 "Hg (May 15, 7:00 PM)
Average50 °F81%29.93 "Hg
* Reported May 13 2:00 AM — May 28 2:00 AM, MD of Lunenburg, Weather by CustomWeather, © 2016

Note: Actual official high and low records may vary slightly from our data, if they occured in-between our weather recording intervals... More about our weather records

Advertising

MD of Lunenburg Weather History for the Previous 24 Hours

Scroll right to see more
 ConditionsComfort  
Time TempWeatherWind HumidityBarometerVisibility
2:00 AM
Sat, May 28
46 °FCool.10 mph97%30.06 "HgN/A
1:00 AM46 °FCool.10 mph97%30.09 "HgN/A
12:00 AM47 °FCool.9 mph94%30.11 "HgN/A
11:00 PM
Fri, May 27
46 °FCool.13 mph95%30.12 "HgN/A
10:00 PM46 °FCool.8 mph95%30.15 "HgN/A
9:00 PM46 °FCool.9 mph97%30.16 "HgN/A
8:00 PM46 °FCool.8 mph96%30.17 "HgN/A
7:00 PM46 °FCool.8 mph96%30.18 "HgN/A
6:00 PM46 °FCool.7 mph96%30.20 "HgN/A
5:00 PM46 °FCool.10 mph95%30.21 "HgN/A
4:00 PM47 °FCool.6 mph92%30.24 "HgN/A
3:00 PM48 °FCool.9 mph90%30.25 "HgN/A
2:00 PM50 °FCool.9 mph86%30.25 "HgN/A
1:00 PM49 °FCool.7 mph92%30.25 "HgN/A
12:00 PM48 °FCool.8 mph91%30.25 "HgN/A
11:00 AM49 °FCool.2 mph85%30.25 "HgN/A
10:00 AM48 °FCool.3 mph89%30.24 "HgN/A
9:00 AM47 °FCool.3 mph92%30.25 "HgN/A
8:00 AM46 °FCool.5 mph88%30.25 "HgN/A
7:00 AM46 °FCool.7 mph86%30.24 "HgN/A
6:00 AM46 °FCool.6 mph87%30.23 "HgN/A
5:00 AM46 °FCool.8 mph85%30.20 "HgN/A
4:00 AM46 °FCool.9 mph87%30.20 "HgN/A
3:00 AM46 °FCool.5 mph87%30.22 "HgN/A
Weather by CustomWeather, © 2016

See weather overviewHow to use our weather pages